Location: Arclight Observatory
(36.5667°N, 87.3333°W)
Time: 08:06:18
(UTC-05:00)

Hubble Space Telescope - Visible Passes

Search period start: 23 July 2016 00:00
Search period end: 02 August 2016 00:00
Orbit: 539 x 543 km, 28.5° (Epoch: 22 July)

Date Brightness Start Highest point End Pass type
(mag) Time Alt. Az. Time Alt. Az. Time Alt. Az.
30 Jul 3.3 05:26:00 10° SSE 05:26:38 10° SSE 05:27:16 10° SSE visible
31 Jul 3.1 05:14:56 10° S 05:16:47 13° SSE 05:18:38 10° SE visible
01 Aug 2.9 05:04:31 10° SSW 05:06:56 15° SSE 05:09:21 10° SE visible
